Theta_e
321 323 323 322 322 322 323 324 325 324 322 324 323 324 322 321 322 323 324 326 326 326 327 328 327 325 324 326 325 326 330 330 330 330 330 329 325 318 315 315 314 314 315 315
319 320 320 320 322 323 320 322 323 322 321 322 323 323 322 321 321 321 322 323 326 326 325 326 327 327 325 323 325 324 326 330 330 330 330 331 329 326 319 315 314 314 314 315
319 319 319 320 321 324 322 322 321 323 320 320 321 323 322 321 319 319 320 320 322 326 326 326 326 327 326 323 322 325 323 323 329 330 331 331 330 329 327 323 316 314 314 314
317 316 319 319 320 321 324 322 321 322 322 325 320 326 323 321 320 320 320 320 319 321 324 325 326 327 328 326 322 322 324 323 322 327 331 331 330 331 329 327 324 319 316 316
317 317 319 320 319 320 322 320 322 323 324 323 322 322 323 321 321 320 319 319 319 320 320 321 322 326 328 328 327 326 323 324 323 323 324 329 330 330 331 330 329 325 325 323
314 315 317 318 315 320 320 320 321 321 323 325 323 324 324 323 322 322 320 319 319 320 320 320 320 320 324 326 327 327 325 323 323 323 322 322 325 329 330 330 330 329 326 324
312 314 314 317 318 317 319 321 323 325 323 326 321 324 323 322 321 320 319 318 318 319 320 320 320 320 320 322 325 326 325 322 323 324 324 322 320 324 328 329 329 330 329 327
312 312 314 314 317 319 321 320 321 323 326 324 319 323 322 321 320 319 318 317 317 318 318 321 321 322 323 323 324 325 326 324 322 322 323 323 322 321 323 326 328 329 329 328
311 311 313 316 315 316 318 322 320 321 309 320 320 320 319 318 319 318 317 317 316 317 319 320 322 323 323 323 323 324 324 325 324 323 320 323 323 323 322 320 323 326 327 327
310 311 310 314 316 317 319 319 321 319 323 324 320 321 320 320 320 319 320 319 319 318 318 319 321 321 322 322 321 322 323 325 326 326 321 322 322 323 323 322 322 322 323 325
312 314 315 313 315 317 319 319 320 320 320 324 324 321 319 320 319 319 319 318 318 317 318 318 319 319 321 322 322 321 322 322 325 326 321 321 321 322 324 324 324 324 324 325
311 312 314 314 314 314 317 319 319 321 321 321 321 322 314 317 317 318 317 317 317 316 317 317 317 319 320 322 321 320 321 321 322 324 322 319 318 319 322 323 324 325 325 326
310 312 312 315 314 314 316 317 319 319 318 323 324 322 318 318 315 314 315 315 315 315 314 316 315 317 320 322 320 319 319 322 321 321 322 321 318 319 321 322 322 324 326 326
310 310 310 312 315 315 318 317 318 319 321 322 322 321 320 318 315 316 315 313 312 314 316 316 316 316 318 318 319 320 319 320 321 321 321 321 319 318 319 320 322 323 325 326
311 312 311 310 311 311 312 312 313 319 319 321 321 321 320 320 319 318 317 316 313 314 314 315 316 317 317 318 319 319 318 317 318 319 320 321 321 321 321 321 321 323 325 326
310 310 307 307 307 308 309 310 311 314 313 317 319 320 318 318 318 317 317 316 316 316 316 315 314 316 317 317 316 315 315 316 316 316 317 320 321 321 321 321 321 322 324 323
309 311 311 309 308 309 312 312 312 312 313 313 316 319 318 319 319 318 317 316 315 316 316 316 317 317 317 317 315 314 313 313 315 317 317 318 319 320 320 320 320 321 321 321
306 307 308 309 308 309 309 309 311 312 313 313 313 314 316 317 317 317 317 317 316 316 315 316 317 316 317 317 317 314 312 312 313 315 317 317 318 317 317 317 318 319 320 321
305 304 305 305 306 306 304 305 309 313 314 313 313 313 313 312 313 315 315 316 316 316 316 316 316 317 318 318 318 314 313 311 311 312 312 311 311 312 313 314 314 313 311 309
304 305 305 305 305 305 304 305 307 308 312 311 313 314 314 314 315 316 314 315 315 315 315 316 316 317 318 318 318 312 312 310 310 310 310 309 309 309 309 308 308 308 308 308
305 305 307 307 307 307 305 308 308 312 308 309 311 313 314 315 315 314 314 315 315 315 315 315 316 316 317 317 317 315 311 310 310 309 309 309 309 309 309 308 308 308 308 308
304 307 307 307 307 307 307 307 307 300 298 301 299 305 304 308 313 314 315 315 315 315 315 315 316 316 317 317 317 314 312 312 309 309 309 308 308 308 308 308 307 307 307 307
303 303 305 308 308 307 302 296 289 288 290 291 291 293 294 297 301 304 310 314 315 315 315 315 316 316 317 317 317 314 314 310 309 309 309 308 308 308 307 307 307 307 307 306
303 294 303 305 305 304 293 292 288 284 285 286 286 287 290 293 295 299 303 306 312 313 313 314 314 315 315 316 316 313 313 310 309 308 309 308 307 307 307 306 306 306 306 306
291 289 291 296 298 288 293 286 282 282 282 283 288 287 287 289 291 292 300 303 305 307 307 308 310 312 313 314 315 313 310 309 307 308 308 307 307 306 306 306 305 305 305 305
279 280 287 296 279 278 280 280 279 280 280 280 281 288 287 285 286 291 296 299 302 308 308 308 309 310 311 310 311 310 309 306 306 306 306 306 306 305 305 305 304 304 303 304
Wind_Speed
13 7 12 14 12 19 14 18 18 12 8 7 15 18 20 24 23 26 29 25 26 30 30 25 32 30 30 31 31 33 35 34 33 33 33 32 32 31 31 31 29 27 27 26
8 20 25 16 9 17 13 11 14 9 6 7 12 19 21 25 23 29 31 31 34 30 26 32 34 35 34 34 35 35 37 37 38 37 35 34 33 33 32 32 32 31 30 29
20 19 15 20 16 14 17 18 9 11 3 9 9 20 25 19 25 30 34 35 35 34 32 30 31 40 39 38 38 39 38 38 41 40 38 37 36 35 35 35 34 34 32 31
16 27 15 10 18 18 14 13 12 13 4 7 1 9 19 13 14 15 25 30 35 35 33 34 33 37 38 42 40 40 40 41 42 42 43 44 43 42 39 36 36 35 34 34
12 17 13 18 22 21 8 13 19 20 17 11 14 7 18 15 19 20 25 28 31 31 34 36 38 45 46 43 43 46 43 44 45 45 44 46 45 44 40 37 38 36 34 34
19 7 13 24 15 13 11 5 2 3 4 8 22 15 12 18 21 21 26 30 26 27 30 34 37 44 46 45 44 45 48 48 47 47 45 46 45 47 45 43 43 38 35 35
26 23 18 8 17 21 18 7 2 4 6 9 6 15 22 16 18 20 19 24 23 22 23 28 33 36 44 47 47 47 47 51 50 51 48 47 47 46 46 45 44 40 38 40
18 13 26 21 26 17 25 22 9 9 7 12 6 12 9 20 29 32 30 27 24 25 28 26 30 32 36 42 45 47 50 50 53 53 51 49 49 48 47 46 45 42 42 40
15 18 6 15 21 23 20 17 25 14 1 5 6 17 9 9 12 16 23 26 29 31 31 32 31 28 32 36 40 42 48 53 51 49 48 50 49 49 48 43 42 44 40 38
8 9 19 11 17 15 11 7 6 5 9 13 13 22 14 8 16 17 18 24 26 29 32 34 31 31 32 28 33 38 43 48 52 49 47 50 47 45 44 42 43 41 39 37
10 8 1 13 18 21 8 11 9 4 4 11 14 14 18 19 19 19 17 19 17 20 24 24 26 30 33 35 29 35 38 43 47 50 48 48 45 46 45 44 42 39 36 36
22 4 10 16 8 11 23 15 17 9 6 6 8 16 2 4 8 16 14 16 18 20 24 21 21 21 24 27 30 30 35 38 43 47 48 48 45 45 45 45 43 40 37 34
11 10 10 4 3 8 14 24 23 13 3 15 7 13 9 14 9 11 14 22 21 12 13 14 16 17 20 26 27 24 27 32 37 41 46 47 45 45 44 41 39 39 37 36
18 11 13 16 3 2 3 19 22 20 9 10 15 28 30 18 8 12 15 19 18 16 14 14 14 16 19 25 29 27 27 28 32 34 38 45 47 47 43 39 38 38 36 35
7 4 10 15 14 12 13 14 12 19 24 14 22 28 34 26 21 25 30 26 23 30 29 24 25 24 17 20 28 29 29 29 29 32 34 39 42 41 38 37 36 35 35 36
12 4 8 6 15 15 18 18 20 23 19 19 31 33 36 38 27 26 26 29 36 40 41 35 35 33 28 22 25 28 28 29 31 34 34 33 35 36 36 36 35 35 35 34
5 5 3 7 9 11 12 23 21 24 23 20 19 36 39 28 24 28 28 31 35 38 38 44 41 42 40 29 24 29 29 28 28 30 31 31 31 34 35 35 35 35 34 33
5 3 2 4 1 10 12 7 14 20 22 24 28 34 36 35 45 33 35 37 41 40 39 44 48 51 49 39 31 27 28 29 29 27 27 28 30 31 31 31 31 31 30 30
14 6 4 5 7 14 21 16 11 10 20 20 26 33 36 56 25 39 55 54 51 41 47 51 48 41 40 40 32 33 31 33 33 33 31 30 29 29 29 29 28 28 28 28
12 13 7 4 5 8 28 3 15 13 18 19 20 28 32 40 14 26 57 43 52 53 59 55 55 46 43 43 32 33 35 35 36 35 32 30 28 27 27 27 27 27 26 26
5 5 14 12 7 11 17 6 5 9 22 11 21 33 35 22 26 59 46 41 39 45 50 51 52 53 52 51 47 37 39 41 38 34 32 32 31 30 28 27 27 27 27 27
9 6 6 7 8 17 3 11 16 9 24 22 24 24 27 28 41 54 48 49 46 48 46 47 46 46 45 48 48 41 43 42 41 37 37 37 35 33 33 32 31 30 30 29
6 10 5 8 6 15 9 13 9 15 17 23 27 32 30 34 39 36 36 42 43 41 43 49 48 49 47 44 44 43 47 44 42 42 42 39 38 36 34 33 32 32 32 31
5 7 7 8 18 17 20 2 14 26 25 27 26 31 32 33 38 41 34 31 32 37 39 42 43 44 44 43 41 39 43 43 45 47 45 43 42 40 37 35 33 33 34 35
4 8 3 9 10 25 10 13 25 36 30 33 35 32 34 33 39 34 33 31 28 26 28 28 32 35 36 36 40 41 42 45 48 48 47 45 43 41 37 35 34 34 34 34
6 4 3 7 15 10 24 27 39 29 32 33 37 46 36 32 37 34 32 28 26 22 22 20 21 27 27 29 33 34 37 43 46 48 47 47 45 42 39 36 33 31 30 30
Wind_Direction
193 212 213 216 219 230 258 234 244 239 223 217 243 249 255 260 253 255 255 254 247 241 241 234 240 242 236 230 224 224 225 227 227 225 226 227 228 226 226 227 226 223 224 225
194 224 224 218 230 221 211 205 226 253 227 224 262 266 264 261 255 250 252 253 251 249 244 238 239 236 236 235 230 224 224 225 229 229 231 232 233 232 231 231 230 227 226 228
226 232 229 220 220 226 204 213 190 237 197 236 278 274 267 254 248 249 250 248 249 246 240 237 235 239 240 234 233 229 227 227 227 229 231 232 235 236 234 233 233 230 231 232
240 239 235 205 227 218 240 213 221 235 253 256 164 285 271 265 243 240 249 245 245 245 241 238 236 238 240 239 236 236 232 229 229 227 229 231 233 234 236 236 236 235 233 234
217 213 199 213 215 210 255 238 212 221 233 246 236 260 267 265 260 258 256 248 246 245 243 241 237 239 240 240 238 237 235 231 230 228 230 232 235 239 240 241 242 240 239 240
241 221 224 228 230 224 156 126 283 149 227 236 235 218 246 253 256 256 253 252 251 249 246 244 245 245 242 241 238 237 237 234 233 232 231 233 236 236 238 239 243 243 242 242
223 228 224 221 211 206 226 169 239 226 207 240 240 218 240 256 249 253 257 255 251 252 252 249 246 240 240 240 238 236 235 234 233 234 233 233 236 236 238 242 244 245 245 243
214 217 218 212 220 205 212 210 210 227 214 246 141 232 251 225 245 247 247 256 262 260 264 259 254 247 246 244 243 238 235 235 236 238 238 235 236 237 238 240 243 246 246 247
205 230 194 199 214 218 210 219 225 266 338 295 228 258 271 216 241 247 248 249 252 259 261 260 256 257 252 245 246 242 236 235 236 240 239 234 236 237 238 240 242 244 248 249
220 247 225 202 218 233 224 217 201 210 226 241 236 253 251 214 239 242 255 255 258 265 267 266 266 258 248 250 250 243 238 236 236 240 238 234 236 238 240 240 242 244 247 249
229 237 148 193 203 207 190 218 217 228 209 229 244 250 255 250 232 234 236 253 266 271 278 282 276 268 254 249 257 247 242 237 235 235 236 235 235 237 237 239 241 243 245 247
208 256 250 245 262 281 219 213 219 231 221 236 269 266 232 237 263 240 245 269 289 289 281 283 273 268 248 248 241 245 245 241 238 236 237 237 238 238 237 238 240 242 244 245
177 223 239 259 262 225 229 219 216 241 282 209 218 252 226 259 241 235 256 269 267 289 319 295 293 277 251 245 237 242 244 241 240 238 237 236 237 236 236 239 242 242 242 243
189 221 216 229 208 42 193 223 224 222 243 235 239 263 261 247 264 292 284 269 269 286 302 314 330 311 274 247 231 239 245 245 239 238 237 234 234 234 239 243 240 239 238 240
200 224 234 253 285 296 263 271 266 242 234 228 242 245 260 253 253 260 266 280 290 283 281 285 305 313 304 264 247 243 244 241 239 239 237 234 234 236 236 235 235 234 234 235
200 256 226 243 248 255 261 255 256 234 234 261 252 258 258 264 274 265 263 262 265 268 278 290 292 293 289 281 258 251 247 243 239 237 236 234 231 230 230 231 230 230 231 232
177 198 213 263 223 237 254 243 240 245 240 222 251 247 267 274 264 263 266 265 266 268 270 281 287 287 285 278 277 259 251 245 241 237 233 230 228 227 227 227 227 228 229 231
163 169 213 244 3 251 243 269 241 240 235 232 244 260 265 260 263 269 267 261 261 265 271 275 279 281 281 277 279 263 245 240 236 229 225 223 223 223 224 225 226 226 227 228
214 194 246 244 236 286 288 251 228 240 263 235 240 254 263 270 287 270 258 253 258 262 267 267 271 275 274 276 267 257 245 238 235 232 226 221 217 216 216 218 220 222 224 224
217 226 232 228 251 260 261 341 216 233 276 236 240 254 261 271 265 260 263 256 254 252 254 259 265 267 262 263 268 257 245 237 231 224 220 215 210 210 213 215 217 220 222 223
165 212 218 231 239 264 273 152 222 215 255 324 259 255 259 261 250 263 275 271 261 258 258 259 263 267 263 262 264 255 245 239 232 221 216 213 211 212 213 215 218 220 220 219
194 194 213 230 224 258 55 212 221 324 319 352 351 318 326 304 279 271 269 268 265 262 262 262 264 266 265 263 260 248 243 242 231 221 218 216 214 212 212 213 213 215 217 216
239 215 233 217 221 261 32 96 50 359 335 329 331 317 319 309 304 305 299 279 274 268 264 267 264 262 263 262 260 250 246 235 230 221 219 218 218 216 215 215 214 214 216 217
249 358 253 282 257 281 318 192 347 348 331 323 321 315 313 311 307 307 304 299 280 272 271 273 271 265 262 257 258 251 242 238 232 223 220 219 218 214 212 214 217 220 220 219
327 339 349 271 282 329 228 10 348 331 327 322 315 317 314 312 307 308 309 310 299 289 285 271 266 265 262 258 252 247 238 232 228 223 222 218 216 215 213 215 219 220 223 225
19 354 272 278 343 309 294 312 325 325 324 321 320 313 311 311 307 312 307 301 301 300 292 279 267 266 258 249 245 242 237 230 226 221 218 216 213 212 212 214 214 216 221 221